"Pseudo-MPEC" for P10HNr9

Created 2018 Jun 18 9:18:21 UT using Find_Orb

Click here for an explanation of pseudo-MPECs

 
 Astrometry: 
     P10HNr9  C2018 06 14GHAstrometry!33sq=rPeH12F_qr=O)pXah]5xT\F/J3(A+Kp\wiF51
     P10HNr9  C2018 06 14]\:USj8#HSk_Y7g=7PgKY.V3ZjpWYSmsbGcTJebp$uvocm-mZ2LCF51
     P10HNr9  C2018 06 14B`#HPMc[s\wtRE?:oD5kmR_Fs2L.fsWG7Y(0Y_p1*5%S3oD'G][GF51
     P10HNr9  C2018 06 141HtMV`G3WHJ6*5,ctOXlTeYI/`KGBLXj_a`4r.8bl'IVUK+gq9RQF51
     P10HNr9 KC2018 06 14c7h=3:OW;4XVuF(]^jP@9,u?k=6*ogGeYi(F*W$yl6UA\7Xt'.:u474
     P10HNr9 KC2018 06 14njn_-*DVLEB_5J+s\cr(y'I['VyjJt^:hx!MvXSuT80$C):aUB`\474
     P10HNr9 KC2018 06 14EvT',TqV(/KKaLx]^redacted;+Y8CCq@'e'\.BsSMZJ[+d;+5Xg474
     P10HNr9 KC2018 06 14:prMc;p45Qy=ha_a;#hO'J[-hv9#RKjlub?8WjLlAc/gJ(YmX`qm474
     P10HNr9 |C2018 06 15H_i;bAf,h;naT%QZqM`5\(7a0qTBWK5%0XtLT:XBV)d+5DVb_kxg807
     P10HNr9 |C2018 06 15)9QTmNer=E\v?.*Z@L6F/+xxb`]-9$6RVD*0LGU/wt='T8SD^=xD807
     P10HNr9 |C2018 06 15;w,V4mI9^Uo(/S8\mkxBbYvgu9*s]yJC/_62RNhGWwTo3.=$,_A@807
     P10HNr9 KC2018 06 155A-047*KjTHTm_fE3TFD,:?/1xop?5+:BO3$TIXHbDmOS:N9nh2#691
     P10HNr9 KC2018 06 15S0sIOb.D+JsJMvYP.'l-Nv`BJS78e:kvgn%PI5'vS+$*dT8E!Etw691
     P10HNr9 KC2018 06 16_pG8-9$^TCRYs.]b5Ypu7_F8_G83DQ)kseejk^HmBjN[\rL,vGCv474
     P10HNr9 KC2018 06 16`iiy6[242Ya=$._x3J4CPtsQp7a9kRt#f`sF=ZcAh#HAj]:,ZD'T474
     P10HNr9 KC2018 06 16uy$g`=Xlk[YQ/Yniv62y8SD068K]w%Xv)y7FW)kmBu7EL'W%sdI)474
     P10HNr9 KC2018 06 16UbEEC_WshW0hhnY5d!7`l7fMHkF3;OB#uHr-YEOjV=Y$Pnh+`(RQ474
     P10HNr9 |C2018 06 17n%y:LfU!.2P0hHqGnFl$=%\GsJS3-+U0o\^J8G6hW$k)9OrqGwSn807
     P10HNr9 |C2018 06 17JW!8d,V@qN5-g:E4*4E/%NirXaiY8BMbS)518`_MnLA9:L'`5`h$807
     P10HNr9 |C2018 06 17X?GYWCa?wjtoY+-@D4hqV'e\/KqI:O(nn)NKM5D$Ys8#2:MNEOCP807
     P10HNr9  C2018 06 18.28181 14 47 36.80 -23 13 08.7          20.8 GUNEOCPI52
     P10HNr9  C2018 06 18.28305 14 47 36.79 -23 13 03.1          20.4 GUNEOCPI52
     P10HNr9  C2018 06 18.28429 14 47 36.92 -23 12 57.5          20.7 GUNEOCPI52
     P10HNr9  C2018 06 18.28554 14 47 37.01 -23 12 52.2          20.8 GUNEOCPI52

Station data:
(474) Mount John Observatory, Lake Tekapo  (S43.987388 E170.464960)  New
   Zealand.  Observers A. C. Gilmore, P. M. Kilmartin. Measurer P. M.
   Kilmartin. 1.0-m f/7.7 reflector + CCD.
(691) Steward Observatory, Kitt Peak - Spacewatch  (N31.962174 W111.600327)
   US/Arizona.  Observer J. V. Scotti. 0.9-m f/3 reflector + CCD.
(807) Cerro Tololo Observatory, La Serena  (S30.169136 W70.805900)  Chile.
   1.5-m Ritchey-Chrétien.
(F51) Pan-STARRS 1, Haleakala  (N20.707235 W156.255910)  US/Hawaii.
   Observers N. Primak, A. Schultz, S. Watters, J. Thiel, T. Goggia. Measurer
   PS1 Science Consortium. 1.8-m Ritchey-Chrétien + CCD.
(I52) Steward Observatory, Mt. Lemmon Station  (N32.442547 W110.788920)
   US/Arizona.  Observers B. M. Africano, E. J. Christensen, D. C. Fuls, A.
   R. Gibbs, A. D. Grauer, J. A. Johnson, R. A. Kowalski, S. M. Larson, G. J.
   Leonard, R. L. Seaman, F. C. Shelly. 1.0-m reflector + CCD.

Orbital elements:  P10HNr9
   Perihelion 2018 Mar 27.836376 +/- 0.737 TT = 20:04:22 (JD 2458205.336376)
Epoch 2018 Jun 18.0 TT = JDT 2458287.5   Earth MOID: 0.4297   Ma: 0.0207
M  31.92750 +/- 0.7                 (J2000 ecliptic)          AutoNEOCP
n   0.38858442 +/- 0.00609          Peri.  298.25499 +/- 0.57
a   1.85985515 +/- 0.0194           Node   255.87729 +/- 0.06
e   0.3054245 +/- 0.00567           Incl.   44.11977 +/- 0.24
P   2.54/926.42d           H 20.5   G  0.15   U  9.3  
q 1.29180970 +/- 0.00307    Q 2.42790059 +/- 0.0365
From 24 observations 2018 June 14-18; mean residual 0".31
Residuals in arcseconds: 
180614 F51  .05+  .12-    180615 807  .03-  .24-    180616 474  .42-  .07-    
180614 F51  .06+  .21-    180615 807  .06-  .06+    180617 807  .36-  .33-    
180614 F51  .19+  .09-    180615 807  .18-  .02+    180617 807  .04+  .35-    
180614 F51  .17+  .24+    180615 691  .37+  .52+    180617 807  .07+  .44-    
180614 474  .02+  .09-    180615 691  .52-  .11-    180618 I52  .47+  .37+    
180614 474  .20+  .24-    180616 474  .25-  .61-    180618 I52  .64-  .35+    
180614 474  .11+  .12+    180616 474  .09-  .85+    180618 I52  .19+  .33+    
180614 474  .24-  .12+    180616 474  .50+  .02+    180618 I52  .46+  .04-    

Ephemerides (geocentric):
Date (UTC) HH   RA              Dec         delta   r     elong  mag " sig PA
---- -- -- --  -------------   -----------  ------ ------ -----  --- ---- ---
2018 06 18 09  14 47 43.106   -23 05 56.34  .52380 1.4533 139.2 21.1  .12  77
2018 06 18 10  14 47 45.677   -23 02 49.01  .52414 1.4534 139.1 21.1  .13  78
2018 06 18 11  14 47 48.250   -22 59 41.93  .52447 1.4535 139.1 21.1  .15  79
2018 06 18 12  14 47 50.823   -22 56 35.11  .52481 1.4537 139.0 21.1  .16  80
2018 06 18 13  14 47 53.396   -22 53 28.54  .52515 1.4538 139.0 21.1  .17  81
2018 06 18 14  14 47 55.971   -22 50 22.22  .52549 1.4540 139.0 21.1  .19  81
2018 06 18 15  14 47 58.546   -22 47 16.16  .52583 1.4541 138.9 21.1  .20  82
2018 06 18 16  14 48 01.123   -22 44 10.35  .52617 1.4543 138.9 21.1  .21  82
2018 06 18 17  14 48 03.700   -22 41 04.79  .52651 1.4544 138.9 21.1  .23  83
2018 06 18 18  14 48 06.277   -22 37 59.49  .52686 1.4546 138.8 21.1  .24  83
2018 06 18 19  14 48 08.856   -22 34 54.44  .52720 1.4547 138.8 21.1  .25  83
2018 06 18 20  14 48 11.435   -22 31 49.64  .52754 1.4548 138.7 21.1  .27  84
2018 06 18 21  14 48 14.016   -22 28 45.10  .52789 1.4550 138.7 21.1  .28  84
2018 06 18 22  14 48 16.597   -22 25 40.81  .52823 1.4551 138.7 21.1  .30  84
2018 06 18 23  14 48 19.179   -22 22 36.77  .52858 1.4553 138.6 21.1  .31  85
2018 06 19 00  14 48 21.761   -22 19 32.99  .52892 1.4554 138.6 21.1  .33  85
2018 06 19 01  14 48 24.345   -22 16 29.47  .52927 1.4556 138.5 21.1  .35  85
2018 06 19 02  14 48 26.929   -22 13 26.19  .52962 1.4557 138.5 21.1  .36  85
2018 06 19 03  14 48 29.514   -22 10 23.17  .52996 1.4558 138.5 21.1  .38  86
2018 06 19 04  14 48 32.100   -22 07 20.41  .53031 1.4560 138.4 21.1  .39  86
2018 06 19 05  14 48 34.686   -22 04 17.89  .53066 1.4561 138.4 21.1  .41  86
2018 06 19 06  14 48 37.274   -22 01 15.64  .53101 1.4563 138.4 21.2  .43  86
2018 06 19 07  14 48 39.862   -21 58 13.63  .53136 1.4564 138.3 21.2  .44  86
2018 06 19 08  14 48 42.451   -21 55 11.88  .53171 1.4566 138.3 21.2  .46  86
2018 06 19 09  14 48 45.041   -21 52 10.39  .53206 1.4567 138.2 21.2  .48  87
2018 06 19 10  14 48 47.632   -21 49 09.14  .53241 1.4569 138.2 21.2  .50  87
2018 06 19 11  14 48 50.223   -21 46 08.15  .53277 1.4570 138.2 21.2  .52  87
2018 06 19 12  14 48 52.815   -21 43 07.42  .53312 1.4571 138.1 21.2  .53  87
2018 06 19 13  14 48 55.408   -21 40 06.94  .53347 1.4573 138.1 21.2  .55  87
2018 06 19 14  14 48 58.002   -21 37 06.71  .53383 1.4574 138.0 21.2  .57  87
2018 06 19 15  14 49 00.597   -21 34 06.74  .53418 1.4576 138.0 21.2  .59  87
2018 06 19 16  14 49 03.192   -21 31 07.02  .53454 1.4577 138.0 21.2  .61  87
2018 06 19 17  14 49 05.789   -21 28 07.55  .53489 1.4579 137.9 21.2  .63  88
2018 06 19 18  14 49 08.386   -21 25 08.34  .53525 1.4580 137.9 21.2  .65  88
2018 06 19 19  14 49 10.984   -21 22 09.38  .53560 1.4582 137.8 21.2  .67  88
2018 06 19 20  14 49 13.582   -21 19 10.68  .53596 1.4583 137.8 21.2  .69  88
2018 06 19 21  14 49 16.182   -21 16 12.23  .53632 1.4584 137.8 21.2  .71  88
2018 06 19 22  14 49 18.782   -21 13 14.03  .53668 1.4586 137.7 21.2  .73  88
2018 06 19 23  14 49 21.383   -21 10 16.09  .53704 1.4587 137.7 21.2  .75  88
2018 06 20 00  14 49 23.985   -21 07 18.40  .53740 1.4589 137.6 21.2  .77  88
2018 06 20 01  14 49 26.587   -21 04 20.97  .53776 1.4590 137.6 21.2  .79  88
2018 06 20 02  14 49 29.191   -21 01 23.78  .53812 1.4592 137.6 21.2  .81  88
2018 06 20 03  14 49 31.795   -20 58 26.86  .53848 1.4593 137.5 21.2  .83  89
2018 06 20 04  14 49 34.400   -20 55 30.18  .53884 1.4595 137.5 21.2  .86  89
2018 06 20 05  14 49 37.006   -20 52 33.76  .53920 1.4596 137.4 21.2  .88  89
2018 06 20 06  14 49 39.613   -20 49 37.59  .53957 1.4598 137.4 21.2  .90  89
2018 06 20 07  14 49 42.220   -20 46 41.68  .53993 1.4599 137.4 21.2  .92  89
2018 06 20 08  14 49 44.828   -20 43 46.02  .54030 1.4600 137.3 21.2  .95  89